Location: Aufkirchen
(47.9603°N, 11.3653°E)
Time: 12:18:38
(UTC+01:00)

deb Explorer IX - Pass Details

Date: 01 December 2020
Orbit: 536 x 1104 km, 38.8° (Epoch: 19 January)

Event Time Altitude Azimuth Distance (km) Brightness Sun altitude
Rises 18:28:47 0° 257° (WSW) 3,500 ? -20.2°
Reaches altitude 10° 18:31:48 10° 248° (WSW) 2,455 ? -20.7°
Maximum altitude 18:36:44 30° 189° (S) 1,336 ? -21.5°
Enters shadow 18:38:58 21° 148° (SSE) 1,561 ? -21.9°
